Location: Croydon
(51.3762°N, 0.0982°W)
Time: 08:26:02
(UTC+00:00)

Altair - Pass Details

Date: 14 November 2019
Orbit: 1502 x 1682 km, 47.2° (Epoch: 07 December)

Event Time Altitude Azimuth Distance (km) Brightness Sun altitude
Rises 08:08:50 0° 273° (W) 4,647 9.5 6.0°
Reaches altitude 10° 08:11:51 10° 271° (W) 3,675 9.1 6.4°
Maximum altitude 08:20:57 65° 192° (SSW) 1,671 8.1 7.5°
Drops below altitude 10° 08:30:22 10° 114° (ESE) 3,790 11.2 8.5°
Sets 08:33:32 0° 112° (ESE) 4,798 11.5 8.9°
